Vorticity
nan nan nan nan nan nan nan nan nan nan nan nan nan nan nan nan nan nan nan nan nan nan nan nan nan nan nan nan nan nan nan nan nan nan nan nan nan nan nan nan nan nan nan nan
nan 10 5 4 15 3 3 6 8 7 10 7 8 11 12 10 8 9 7 3 4 12 6 7 7 7 7 6 7 8 7 6 5 5 6 8 9 7 7 7 6 7 6 nan
nan 3 9 9 5 6 4 6 1 9 12 9 7 14 11 8 10 10 6 6 8 8 10 8 6 7 8 8 8 8 8 7 6 5 6 6 6 8 10 7 8 8 7 nan
nan 8 6 9 6 6 6 9 6 9 4 9 11 8 18 12 9 8 9 9 7 7 7 6 11 9 8 9 8 9 9 7 7 6 4 6 6 9 9 7 9 7 10 nan
nan 17 8 8 12 3 3 6 12 11 8 7 12 2 11 13 15 16 12 11 9 8 9 8 4 9 10 10 9 10 9 8 8 6 5 7 7 6 7 9 9 8 8 nan
nan 11 13 14 15 9 7 3 9 9 11 12 5 10 12 6 9 14 16 15 12 14 10 6 10 9 10 10 10 10 10 8 9 8 8 4 4 6 9 10 6 8 8 nan
nan 7 7 14 9 14 9 4 4 9 6 7 9 8 9 12 9 7 11 12 13 15 11 12 13 10 7 9 8 8 9 9 9 9 8 8 7 7 7 8 7 7 7 nan
nan 15 13 7 9 12 13 2 4 8 8 5 5 10 4 10 8 7 7 8 11 14 16 15 8 9 11 10 8 7 8 8 8 8 8 9 8 6 10 6 9 8 7 nan
nan 6 11 12 12 12 11 3 5 12 6 4 11 13 7 7 6 7 5 7 8 11 20 18 12 10 11 8 8 8 8 8 9 7 8 8 8 7 4 9 9 5 7 nan
nan 8 12 13 7 5 5 15 14 6 7 13 7 2 16 13 10 7 7 7 8 10 14 16 16 11 10 7 11 11 8 9 8 8 7 8 8 8 6 8 5 6 8 nan
nan 6 14 7 14 8 8 5 3 4 17 13 9 8 13 14 18 11 6 5 7 9 11 13 13 14 11 10 11 10 10 8 9 9 8 8 9 9 9 7 7 7 6 nan
nan 8 8 1 4 9 9 16 11 10 8 -1 5 18 13 14 13 10 6 7 7 6 8 13 14 11 12 13 11 7 9 11 10 9 9 9 8 10 9 8 7 7 9 nan
nan 5 7 10 3 8 12 10 1 1 6 11 11 12 12 10 8 7 7 9 7 6 8 11 13 14 15 15 9 9 10 10 9 12 9 9 9 8 8 9 9 8 9 nan
nan 10 4 3 11 13 10 6 11 5 1 11 12 9 14 6 8 7 8 8 6 7 10 15 16 18 20 17 14 10 10 10 8 10 11 10 8 9 10 10 9 9 9 nan
nan 10 10 5 10 11 9 12 10 4 5 5 9 11 13 17 13 10 8 8 6 5 7 12 14 17 21 20 16 11 10 14 14 12 11 10 11 10 10 11 11 11 9 nan
nan 12 14 8 9 7 8 7 10 11 9 8 6 7 12 14 14 14 9 6 4 4 7 8 9 13 16 20 18 13 12 14 15 13 10 11 12 12 11 11 11 11 11 nan
nan 11 9 9 10 5 9 16 11 10 11 9 4 13 13 10 12 12 9 5 6 7 9 8 8 9 9 9 14 15 16 13 10 11 11 11 11 12 12 12 12 11 11 nan
nan 11 6 11 10 4 5 14 21 17 9 7 6 13 10 13 12 11 11 10 12 13 9 9 8 6 8 9 9 7 6 12 14 11 11 9 9 12 14 15 13 11 11 nan
nan 9 6 14 3 7 10 10 14 13 11 10 10 10 12 11 6 9 9 14 16 13 9 7 9 10 8 10 8 6 10 11 8 7 10 12 12 11 10 9 13 15 13 nan
nan 8 8 9 10 11 9 14 9 8 17 18 17 14 10 5 6 15 13 13 13 12 9 11 10 8 7 7 5 8 11 9 8 8 8 10 14 10 9 10 9 9 11 nan
nan 13 12 3 10 8 17 16 10 4 13 24 18 13 11 0 12 20 14 11 10 11 11 9 9 10 9 10 10 10 10 9 8 10 12 15 15 13 10 9 10 10 12 nan
nan 6 14 11 11 14 11 8 3 7 15 13 16 14 9 10 14 8 9 10 10 9 8 9 10 10 11 12 12 12 9 8 12 15 14 14 15 15 15 14 11 13 13 nan
nan 13 9 16 11 20 13 3 13 11 13 12 15 13 11 10 9 8 8 8 8 7 6 8 10 11 11 10 12 12 8 11 13 15 12 9 10 11 15 16 12 13 13 nan
nan 13 19 17 16 16 6 10 13 11 15 16 15 13 10 10 8 7 7 8 8 8 7 6 7 10 11 10 12 9 11 15 14 10 9 9 9 9 11 11 10 12 12 nan
nan 13 17 11 11 14 14 11 8 12 14 14 14 12 11 10 8 7 8 7 8 8 7 6 7 12 12 10 9 10 14 13 10 9 10 9 8 8 7 7 12 14 11 nan
nan nan nan nan nan nan nan nan nan nan nan nan nan nan nan nan nan nan nan nan nan nan nan nan nan nan nan nan nan nan nan nan nan nan nan nan nan nan nan nan nan nan nan nan
CAPE
0 0 0 35 41 23 113 154 0 68 773 849 655 496 501 321 695 578 692 470 357 397 459 611 765 774 868 867 766 972 1347 1649 1406 1193 1289 1299 985 1205 1462 1446 1882 2006 2098 2205
0 0 0 0 30 68 11 11 3 291 840 804 682 657 553 770 549 538 562 454 394 456 545 645 724 773 904 1108 1167 1036 1563 1766 1633 1124 1303 1143 988 1008 1228 1408 1834 1858 1931 2378
0 0 0 0 0 1 8 20 0 0 227 746 722 723 830 782 788 839 769 702 430 375 467 681 750 737 861 1087 1355 1400 1634 1755 1652 1200 1606 1749 1706 1810 1635 1614 1552 1939 2103 2057
0 0 0 0 0 0 56 39 0 32 132 367 546 337 661 1128 1118 840 881 829 577 419 533 163 721 832 853 987 1267 1385 1760 1740 1677 1709 1339 1487 1289 1233 955 1277 1154 1508 2184 2143
0 0 0 0 0 0 17 0 0 5 220 145 255 233 482 843 914 1216 948 744 833 719 528 401 411 728 876 874 1114 1332 1714 1814 1601 1881 1661 1492 1552 1110 1069 1166 1457 2003 2187 2370
0 0 0 0 0 0 0 51 102 177 222 95 143 97 61 117 529 1000 1052 980 725 711 660 538 566 461 727 959 1048 1203 1576 1786 1646 1747 2056 1725 1557 1685 1130 1499 1527 1553 1679 1954
0 0 0 0 0 0 0 22 80 115 128 97 71 35 99 155 474 739 901 893 905 843 747 695 754 758 873 1166 1161 1215 1519 1835 1792 1821 1758 1707 1711 1756 1904 1936 1239 1273 1178 1313
0 0 0 0 0 0 0 31 90 111 92 75 68 14 100 180 408 581 701 662 833 1037 1011 728 521 788 831 1140 1346 1343 1513 1955 1834 1572 1535 1624 1520 1469 1433 1106 944 1000 941 984
0 0 0 0 0 14 14 18 43 63 45 44 33 33 1 288 383 515 450 359 494 867 1001 1037 779 847 897 1029 1286 1441 1546 1888 1824 1496 1506 1633 1588 1624 1416 1476 1615 1581 1458 995
0 7 0 0 0 0 2 17 36 53 36 70 40 9 28 127 415 351 334 153 106 166 652 921 824 817 1000 940 987 1337 1523 1888 1894 1618 1575 1565 1404 1524 1532 1649 1961 1586 1280 1662
0 0 2 0 0 5 0 0 0 7 17 22 25 20 23 0 325 538 282 76 224 416 477 554 908 935 973 995 861 899 1285 1507 1848 1732 1572 1505 1430 1312 1516 1564 1706 1886 1858 1831
0 13 60 9 17 24 3 11 14 22 48 3 7 10 158 430 585 458 152 66 228 266 509 701 869 921 979 1039 1231 812 736 1118 1652 1680 1721 1611 1557 1433 1323 1595 1499 1666 1806 1506
1 2 51 30 19 17 0 0 0 8 13 36 42 78 326 429 379 172 196 198 391 299 445 874 947 903 961 990 1188 1186 1080 914 1482 1808 1552 1612 1582 1517 1404 1374 1604 1573 1671 1724
2 21 33 60 70 46 28 21 7 6 44 48 51 34 283 334 400 248 300 585 460 298 924 1177 1023 475 816 1216 1152 1366 1652 1295 1586 1744 1685 1615 1634 1551 1472 1542 1598 1611 1773 1837
2 67 63 56 20 9 34 35 10 12 11 18 35 3 6 139 303 344 305 556 416 497 604 956 921 704 1141 1104 1005 1333 1707 2277 1932 2032 2027 1976 1825 1921 1836 1763 1846 1865 1760 1811
9 133 98 60 0 2 15 4 2 0 0 0 12 0 22 150 214 441 289 473 497 480 222 548 773 795 686 819 970 1135 1453 1630 1822 1872 1841 1925 2228 2159 2402 2305 2298 2308 2020 1891
51 77 122 100 36 23 2 0 0 0 0 6 16 26 362 283 200 482 364 457 590 744 732 424 589 848 612 312 549 877 857 1014 1428 1603 1658 1492 1618 1673 1769 1743 2201 2412 2164 1982
82 121 140 140 120 77 17 1 0 0 2 4 1 112 206 237 181 376 448 578 1062 1114 1102 642 480 670 436 157 358 246 171 154 685 775 721 847 650 717 972 1363 1633 1871 1952 2122
22 151 164 210 164 71 3 2 0 0 0 0 1 59 262 456 809 1118 1096 1140 1407 1519 1227 1286 888 720 785 435 407 172 260 207 184 249 393 759 818 334 533 245 699 1456 1579 1826
20 109 151 123 64 111 39 30 0 0 0 0 0 123 322 785 584 769 909 1240 1377 1367 761 945 882 747 732 509 205 335 475 567 258 154 174 184 528 474 349 410 310 96 278 436
31 79 109 134 62 42 31 57 107 0 14 4 0 249 613 788 853 1254 920 1298 1366 1278 997 981 844 571 391 467 446 555 546 629 550 608 708 643 585 304 286 42 34 87 95 84
101 119 85 190 153 92 0 134 21 0 119 7 201 582 902 1039 1115 908 770 900 831 728 217 51 16 51 117 228 370 430 624 491 533 699 697 556 591 242 273 127 75 119 93 8
206 96 106 117 144 415 188 47 55 136 320 437 814 909 1114 966 1107 1019 1068 799 441 177 145 36 15 0 21 154 230 431 331 335 415 154 170 35 13 13 11 11 10 10 6 4
111 31 130 110 131 205 282 304 317 276 408 575 928 1085 947 1004 985 892 830 636 384 272 217 97 40 15 19 44 188 173 56 208 137 21 4 3 2 2 1 0 3 11 10 12
143 63 112 163 203 242 297 421 516 536 589 580 690 926 785 973 749 704 767 739 551 472 277 80 33 0 38 33 199 57 113 31 4 2 4 0 0 0 0 0 0 1 0 0
96 105 124 93 598 1195 818 576 634 667 647 714 694 787 826 562 459 437 781 990 856 621 302 72 7 6 33 91 254 112 137 85 7 4 6 3 4 4 0 0 0 0 0 0